[[{"header":{"parameterUnit":"m.s-1","parameterCategory":1,"la1":30.2991,"la2":30.254,"lo1":-89.0895,"lo2":-89.0444,"dy":0.0017,"dx":0.0017,"nx":28,"ny":28,"refTime":"2023-04-29T21:00:00:Z","depth":0,"parameterNumber":2,"parameterNumberName":"U-component_of_WINDS"},"data":[0,0,0,0,0,0,0,0,0,0,0,0,0,0,0,0,0,0,0,0,0,0,0,0,0,0,0,0,0,0,0,0,0,0,0,0,0,0,0,0,0,0,0,0,0,0,0,0,0,0,0,0,0,0,0,0,0,0,5.5554,5.5556,0,5.5743,5.5745,5.5748,5.5752,5.5749,5.5747,5.5745,5.5939,5.5946,5.5953,0,0,0,0,0,0,0,0,0,0,0,0,0,5.5198,5.5205,5.5554,5.5556,5.5559,5.5743,5.5746,5.5748,5.5752,5.5749,5.5746,5.5744,5.5936,5.5945,5.5954,0,0,0,0,0,0,0,0,0,0,0,0,0,5.5367,5.5207,5.5553,5.5583,5.5587,5.5742,5.5746,5.5749,5.5753,5.5749,5.5746,5.5742,5.5933,5.5944,5.5955,5.6094,0,0,5.5989,5.5994,0,0,0,0,0,0,0,0,5.5357,5.538,5.5576,5.5581,5.5586,5.572,5.5691,5.5864,5.5754,5.569,5.5745,5.5741,5.5869,5.5885,5.5928,5.6103,5.6111,5.599,5.5996,5.6001,5.6004,0,0,0,0,0,0,0,5.5346,5.5372,5.5629,5.5579,5.5585,5.5587,5.5607,5.5724,5.5797,5.5695,5.5696,5.5718,5.5871,5.5918,5.5933,5.6114,5.5989,5.5999,5.6006,5.601,5.6416,5.6419,0,0,0,0,0,0,5.5328,5.5362,5.5623,5.5634,5.5461,5.5597,5.5619,5.5681,5.5796,5.581,5.5721,5.5718,5.59,5.592,5.594,5.6112,5.6001,5.6011,5.6018,5.6411,5.6416,5.6421,0,0,0,0,0,0,5.532,5.5351,5.5615,5.5499,5.5532,5.5607,5.5676,5.5686,5.5733,5.5815,5.5828,5.5755,5.5898,5.5924,5.6056,5.6119,5.6016,5.6026,5.6407,5.6413,5.6419,5.6456,0,0,0,0,0,0,5.531,5.5348,5.5401,5.55,5.5539,5.5728,5.568,5.5693,5.5752,5.5749,5.5851,5.5864,5.5898,5.604,5.6067,5.6132,5.6035,5.6401,5.6409,5.6417,5.645,5.6463,5.6475,0,0,0,0,0,5.5297,5.5403,5.5403,5.5435,5.5606,5.5731,5.5754,5.579,5.5757,5.5811,5.5865,5.5861,5.6107,5.6053,5.6084,5.6153,5.6397,5.6407,5.6416,5.6444,5.6461,5.6474,0,0,0,0,0,0,5.5309,5.5416,5.5418,5.5559,5.5636,5.5732,5.5801,5.5806,5.5894,5.5888,5.5929,5.5952,5.6084,5.6132,5.6069,5.6296,5.6249,5.6265,5.626,5.6276,5.6288,5.6274,5.6044,0,0,0,0,0,5.5328,5.542,5.551,5.5625,5.5664,5.5726,5.5782,5.5804,5.5885,5.5918,5.5981,5.606,5.6156,5.6218,5.6311,5.6457,5.648,5.652,5.6532,5.6542,5.6556,5.664,5.6659,5.6452,5.6452,5.6451,0,0,5.5368,5.5438,5.5494,5.563,5.5692,5.5788,5.5753,5.5856,5.5928,5.5933,5.6063,5.6112,5.6204,5.6344,5.6409,5.6388,5.6618,5.6554,5.6561,5.657,5.6651,5.6671,5.6688,5.6458,5.6457,5.6456,0,0,5.5491,5.5552,5.5657,5.5721,5.5816,5.5857,5.5882,5.5979,5.6012,5.6142,5.6149,5.6236,5.6399,5.6466,5.6521,5.6672,5.6673,5.6701,5.6766,5.6847,5.6864,5.6878,5.6935,5.6954,5.6714,5.6714,5.6714,0,5.5529,5.5673,5.571,5.5814,5.5875,5.5885,5.5993,5.6053,5.6173,5.6216,5.619,5.6398,5.646,5.6618,5.6655,5.6698,5.673,5.669,5.6858,5.6873,5.6888,5.6942,5.6963,5.6717,5.6717,5.6717,5.6716,0,5.5717,5.5817,5.5891,5.6008,5.6077,5.6182,5.6236,5.6302,5.6318,5.6362,5.6497,5.6572,5.6682,5.6721,5.6737,5.6882,5.6866,5.6849,5.6803,5.691,5.6962,5.6983,5.6721,5.672,5.6719,5.6719,0,0,5.5851,5.599,5.6016,5.6071,5.6178,5.6257,5.6364,5.6472,5.6528,5.6611,5.6704,5.6843,5.6829,5.6891,5.6916,5.6987,5.7106,5.6961,5.6964,5.6988,5.7274,5.7288,5.7311,5.7107,5.7111,5.7114,5.7267,0,5.5988,5.6177,5.6215,5.638,5.6475,5.6488,5.6581,5.6658,5.6702,5.679,5.684,5.6939,5.6911,5.695,5.7021,5.7076,5.7164,5.7065,5.7195,5.7199,5.7173,5.7338,5.7352,5.7493,5.7287,5.7291,5.7293,0,5.6171,5.6261,5.6436,5.6533,5.6575,5.6658,5.6761,5.6844,5.6933,5.696,5.7032,5.7049,5.7162,5.7111,5.7269,5.7201,5.7256,5.7292,5.7298,5.7313,5.7253,5.7359,5.7538,5.756,5.7325,5.7323,5.732,0,5.6255,5.6419,5.6546,5.6592,5.6708,5.6767,5.6818,5.6903,5.6967,5.7057,5.7099,5.7201,5.7258,5.7337,5.7383,5.734,5.7539,5.749,5.7567,5.7566,5.7609,5.7606,5.7801,5.7641,5.7641,5.764,5.764,0,5.6405,5.6512,5.6586,5.6664,5.6785,5.6828,5.6947,5.6998,5.7074,5.7163,5.718,5.7263,5.7317,5.7409,5.7445,5.7573,5.7597,5.7624,5.7633,5.7624,5.7621,5.7662,5.7654,5.7646,5.7645,5.7644,5.7643,0,5.6519,5.6572,5.6712,5.6811,5.6839,5.6924,5.701,5.7087,5.7133,5.7246,5.7275,5.7347,5.7456,5.7509,5.7644,5.7669,5.7814,5.7815,5.7784,5.7788,5.7863,5.7856,5.8093,5.8127,5.7942,5.7944,5.7946,0,5.6611,5.6695,5.6804,5.6865,5.6918,5.7016,5.7081,5.7128,5.7195,5.7304,5.7369,5.7479,5.757,5.7744,5.7809,5.7914,5.7919,5.7995,5.7935,5.7924,5.7923,5.7918,5.7928,5.8006,5.8008,5.8009,5.801,0,5.6771,5.6794,5.6888,5.6992,5.7069,5.7153,5.7236,5.7285,5.7345,5.742,5.7533,5.7603,5.7743,5.7853,5.7963,5.8017,5.8025,5.8029,5.8053,5.8045,5.8025,5.804,5.7816,5.8023,5.8022,5.8021,5.802,5.802,5.6879,5.6955,5.7044,5.7149,5.7216,5.7294,5.7372,5.7428,5.7523,5.764,5.7662,5.7782,5.7871,5.8019,5.8077,5.8173,5.8156,5.819,5.8199,5.8207,5.8212,5.8008,5.8193,5.8192,5.8192,5.8192,5.8192,0,5.7042,5.7101,5.7196,5.7312,5.7395,5.7395,5.7487,5.7557,5.7662,5.7745,5.7834,5.7965,5.8073,5.8147,5.8257,5.832,5.8326,5.8347,5.8344,5.8357,5.822,5.8189,5.834,5.834,5.834,5.834,5.834,5.834,5.7137,5.7266,5.73,5.7463,5.7521,5.7639,5.7692,5.7765,5.7831,5.7977,5.8066,5.8114,5.8194,5.831,5.841,5.8429,5.847,5.8492,5.8511,5.8382,5.8366,5.8351,5.8323,5.85,5.85,5.8641,5.8642,5.8643]},{"header":{"parameterUnit":"m.s-1","parameterCategory":1,"la1":30.2991,"la2":30.254,"lo1":-89.0895,"lo2":-89.0444,"dy":0.0017,"dx":0.0017,"nx":28,"ny":28,"refTime":"2023-04-29T21:00:00:Z","depth":0,"parameterNumber":3,"parameterNumberName":"V-component_of_WINDS"},"data":[0,0,0,0,0,0,0,0,0,0,0,0,0,0,0,0,0,0,0,0,0,0,0,0,0,0,0,0,0,0,0,0,0,0,0,0,0,0,0,0,0,0,0,0,0,0,0,0,0,0,0,0,0,0,0,0,0,0,-3.5084,-3.5085,0,-3.5161,-3.5162,-3.5163,-3.5175,-3.5175,-3.5174,-3.5173,-3.5247,-3.525,-3.5253,0,0,0,0,0,0,0,0,0,0,0,0,0,-3.4946,-3.4948,-3.5084,-3.5085,-3.5086,-3.5161,-3.5162,-3.5163,-3.5176,-3.5175,-3.5174,-3.5173,-3.5247,-3.525,-3.5253,0,0,0,0,0,0,0,0,0,0,0,0,0,-3.5012,-3.4949,-3.5084,-3.5102,-3.5104,-3.5161,-3.5162,-3.5163,-3.5176,-3.5175,-3.5174,-3.5173,-3.5246,-3.5249,-3.5253,-3.5297,0,0,-3.5265,-3.5267,0,0,0,0,0,0,0,0,-3.5009,-3.5017,-3.5098,-3.51,-3.5103,-3.5158,-3.514,-3.5208,-3.5176,-3.5148,-3.5173,-3.5172,-3.5218,-3.5224,-3.5241,-3.53,-3.5303,-3.5265,-3.5268,-3.5269,-3.527,0,0,0,0,0,0,0,-3.5004,-3.5014,-3.5115,-3.5099,-3.5102,-3.5105,-3.5113,-3.5153,-3.5188,-3.5151,-3.5152,-3.5161,-3.5219,-3.5237,-3.5242,-3.5304,-3.5265,-3.5269,-3.5271,-3.5273,-3.5405,-3.5406,0,0,0,0,0,0,-3.4997,-3.501,-3.5112,-3.5117,-3.5053,-3.5108,-3.5117,-3.5141,-3.5187,-3.5193,-3.5162,-3.5161,-3.5231,-3.5238,-3.5245,-3.53,-3.5269,-3.5273,-3.5275,-3.5404,-3.5405,-3.5407,0,0,0,0,0,0,-3.4994,-3.5006,-3.5109,-3.5064,-3.5077,-3.5111,-3.5138,-3.5143,-3.5161,-3.5196,-3.5201,-3.5173,-3.523,-3.524,-3.5284,-3.5303,-3.5275,-3.5278,-3.5403,-3.5404,-3.5406,-3.541,0,0,0,0,0,0,-3.499,-3.5005,-3.5022,-3.5064,-3.508,-3.5148,-3.5139,-3.5145,-3.5168,-3.5168,-3.5208,-3.5214,-3.523,-3.5279,-3.5288,-3.5308,-3.5281,-3.5401,-3.5403,-3.5406,-3.5408,-3.5411,-3.5414,0,0,0,0,0,-3.4985,-3.5018,-3.5023,-3.5035,-3.5102,-3.5149,-3.5158,-3.5177,-3.5169,-3.5187,-3.521,-3.5213,-3.5299,-3.5283,-3.5294,-3.5315,-3.54,-3.5403,-3.5405,-3.5407,-3.5411,-3.5414,0,0,0,0,0,0,-3.4975,-3.5024,-3.5029,-3.5078,-3.511,-3.5151,-3.5173,-3.518,-3.5213,-3.5212,-3.5233,-3.5242,-3.5286,-3.5305,-3.5286,-3.536,-3.5349,-3.5354,-3.5346,-3.535,-3.5353,-3.5348,-3.5284,0,0,0,0,0,-3.4979,-3.5014,-3.5054,-3.5093,-3.5109,-3.5139,-3.516,-3.5172,-3.5205,-3.5218,-3.5244,-3.5274,-3.5309,-3.5331,-3.5364,-3.5411,-3.542,-3.5431,-3.5434,-3.5436,-3.544,-3.5468,-3.5474,-3.5416,-3.5416,-3.5416,0,0,-3.4986,-3.5018,-3.5038,-3.5092,-3.5118,-3.5153,-3.515,-3.5186,-3.5212,-3.5223,-3.5267,-3.5288,-3.5323,-3.537,-3.5392,-3.5387,-3.5459,-3.544,-3.5442,-3.5444,-3.5471,-3.5477,-3.5482,-3.5417,-3.5417,-3.5417,0,0,-3.5018,-3.5045,-3.5082,-3.5108,-3.5148,-3.5168,-3.5177,-3.5218,-3.5233,-3.5278,-3.5288,-3.5318,-3.5377,-3.5402,-3.5423,-3.5468,-3.5472,-3.5478,-3.5493,-3.552,-3.5525,-3.5529,-3.5546,-3.5551,-3.5482,-3.5482,-3.5482,0,-3.5022,-3.5076,-3.5099,-3.5136,-3.516,-3.5174,-3.5211,-3.5235,-3.5283,-3.5299,-3.5293,-3.5369,-3.5393,-3.5447,-3.5458,-3.5474,-3.5485,-3.5473,-3.5523,-3.5527,-3.5531,-3.5547,-3.5553,-3.5482,-3.5482,-3.5482,-3.5482,0,-3.5079,-3.5117,-3.5141,-3.519,-3.5217,-3.5254,-3.5281,-3.5305,-3.5316,-3.5337,-3.5384,-3.5414,-3.5455,-3.5469,-3.5478,-3.5524,-3.552,-3.5519,-3.5508,-3.5537,-3.5552,-3.5559,-3.5483,-3.5483,-3.5483,-3.5482,0,0,-3.5105,-3.5168,-3.5177,-3.52,-3.5246,-3.5275,-3.5313,-3.5355,-3.5376,-3.5409,-3.5441,-3.5492,-3.5491,-3.5515,-3.5528,-3.5551,-3.5586,-3.5547,-3.5548,-3.5553,-3.5639,-3.564,-3.5647,-3.559,-3.5591,-3.5592,-3.5636,0,-3.5143,-3.5212,-3.5235,-3.5292,-3.5328,-3.5342,-3.5375,-3.5407,-3.5427,-3.546,-3.5482,-3.5518,-3.5514,-3.5529,-3.5553,-3.5577,-3.5603,-3.5574,-3.5619,-3.562,-3.561,-3.5655,-3.5656,-3.5696,-3.5642,-3.5644,-3.5644,0,-3.5195,-3.5232,-3.5294,-3.5338,-3.5354,-3.5383,-3.5424,-3.5455,-3.5492,-3.5505,-3.5533,-3.5545,-3.5585,-3.5572,-3.5628,-3.5607,-3.5627,-3.5642,-3.5644,-3.5648,-3.5634,-3.5661,-3.571,-3.5716,-3.5654,-3.5653,-3.5652,0,-3.5209,-3.5274,-3.532,-3.5339,-3.5391,-3.5412,-3.5434,-3.547,-3.5494,-3.553,-3.5546,-3.5585,-3.5606,-3.5636,-3.5659,-3.5647,-3.5712,-3.5701,-3.5724,-3.5724,-3.5736,-3.5735,-3.5789,-3.5749,-3.5749,-3.5749,-3.5749,0,-3.5249,-3.5286,-3.5327,-3.5355,-3.5397,-3.5423,-3.5464,-3.5487,-3.5519,-3.5551,-3.5566,-3.5596,-3.5623,-3.5657,-3.5674,-3.5718,-3.5727,-3.5739,-3.5743,-3.5738,-3.5736,-3.5751,-3.5749,-3.5751,-3.575,-3.575,-3.575,0,-3.527,-3.5299,-3.535,-3.5397,-3.5409,-3.5439,-3.5478,-3.5505,-3.5528,-3.5569,-3.558,-3.5614,-3.5655,-3.568,-3.5731,-3.5743,-3.5791,-3.5794,-3.5779,-3.5781,-3.5803,-3.58,-3.5868,-3.5878,-3.5831,-3.5831,-3.5832,0,-3.5293,-3.5323,-3.5374,-3.5397,-3.5421,-3.5458,-3.5484,-3.5511,-3.5537,-3.5582,-3.5605,-3.5647,-3.5682,-3.5746,-3.5774,-3.5814,-3.5818,-3.5839,-3.5824,-3.5818,-3.5819,-3.5817,-3.5821,-3.5841,-3.5842,-3.5842,-3.5842,0,-3.5332,-3.5346,-3.5383,-3.5427,-3.5458,-3.5492,-3.5527,-3.5545,-3.5578,-3.5606,-3.5649,-3.5676,-3.573,-3.5772,-3.5814,-3.5836,-3.5845,-3.5847,-3.5855,-3.5849,-3.584,-3.5846,-3.5786,-3.5845,-3.5845,-3.5845,-3.5844,-3.5844,-3.5356,-3.5383,-3.5424,-3.5466,-3.5495,-3.5528,-3.5557,-3.5584,-3.562,-3.5667,-3.5681,-3.5726,-3.5763,-3.5821,-3.5845,-3.588,-3.5877,-3.5887,-3.589,-3.5892,-3.5893,-3.5835,-3.5887,-3.5887,-3.5887,-3.5887,-3.5887,0,-3.5395,-3.5423,-3.5461,-3.5511,-3.5544,-3.5551,-3.5591,-3.5617,-3.5657,-3.5692,-3.5727,-3.5777,-3.5818,-3.5851,-3.5894,-3.5916,-3.5921,-3.5926,-3.5924,-3.5929,-3.5893,-3.5883,-3.5921,-3.5921,-3.5921,-3.5921,-3.5921,-3.5921,-3.542,-3.5468,-3.5486,-3.5549,-3.5576,-3.5622,-3.5644,-3.5674,-3.5702,-3.5758,-3.5793,-3.5815,-3.585,-3.5895,-3.5933,-3.5942,-3.5956,-3.5961,-3.597,-3.5935,-3.5932,-3.5928,-3.5919,-3.5964,-3.5964,-3.6004,-3.6004,-3.6005]}]]